User: anonymous   Login
Location: B�hl
(48.6968°N, 8.1352°E)
Time: 20:07:52
(UTC+00:00)
Language:

Cosmos 1898 Rocket - Orbit

View from above orbital plane
View from above orbital plane
View from above satellite
View from above satellite

Ground track
Ground track

The orbit data is extracted from the following two-line orbital elements,

1 18586U 87098B   21136.53617744  .00000046  00000-0  24505-4 0  9990
2 18586  74.0060 182.9907 0022271 262.4547  97.4077 14.36949425752350
Epoch (UTC): 16 May 2021 12:52:05
Eccentricity: 0.0022271
inclination: 74.0060°
perigee height: 752 km
apogee height: 784 km
right ascension of ascending node: 182.9907°
argument of perigee: 262.4547°
revolutions per day: 14.36949425
mean anomaly at epoch: 97.4077°
orbit number at epoch: 75235

The dashed part of the orbit path shows where the satellite is in the earth's shadow,  

DLR